This is the latest recevied weather packets stored in our database for station/object OZ0AJ-13. If no packets are shown the sender has not sent any weather packets the latest 10 day(s).
| Time | Temp. | Humidity | Pressure | Rain* | Wind** | Luminosity | Snow |
|---|---|---|---|---|---|---|---|
| 1777745427 | 13.33° C | 89% | 1013.1 hPa | 0 mm | - | - | - |
| 1777744823 | 13.33° C | 89% | 1013.2 hPa | 0 mm | - | - | - |
| 1777744219 | 13.33° C | 88% | 1013.2 hPa | 0 mm | - | - | - |
| 1777743635 | 13.33° C | 89% | 1013 hPa | 0 mm | - | - | - |
| 1777743031 | 13.33° C | 90% | 1013.1 hPa | 0 mm | - | - | - |
| 1777742427 | 13.33° C | 89% | 1013.2 hPa | 0.25 mm | - | - | - |
| 1777741823 | 13.33° C | 90% | 1013.2 hPa | 0.51 mm | - | - | - |
| 1777741219 | 13.33° C | 90% | 1013.2 hPa | 1.02 mm | - | - | - |
| 1777740615 | 13.33° C | 91% | 1013.3 hPa | 1.52 mm | - | - | - |
| 1777740031 | 13.33° C | 91% | 1013.4 hPa | 1.52 mm | - | - | - |
| 1777739427 | 13.33° C | 92% | 1013.4 hPa | 1.78 mm | - | - | - |
| 1777738823 | 13.33° C | 91% | 1013.7 hPa | 1.78 mm | - | - | - |
| 1777738220 | 13.33° C | 90% | 1014 hPa | 1.52 mm | - | - | - |
| 1777737615 | 13.33° C | 88% | 1014.2 hPa | 1.02 mm | - | - | - |
| 1777737032 | 13.89° C | 86% | 1014.3 hPa | 0.51 mm | - | - | - |
| 1777736428 | 13.89° C | 84% | 1014.4 hPa | 0.25 mm | - | - | - |
| 1777735824 | 15° C | 79% | 1014.6 hPa | 0.25 mm | - | - | - |
| 1777735220 | 15° C | 75% | 1014.5 hPa | 0 mm | - | - | - |
| 1777734616 | 15.56° C | 72% | 1014.6 hPa | 0 mm | - | - | - |
| 1777734032 | 16.11° C | 68% | 1014.8 hPa | 0 mm | - | - | - |
| 1777733428 | 17.22° C | 62% | 1014.7 hPa | 0 mm | - | - | - |
| 1777732824 | 16.67° C | 61% | 1014.9 hPa | 0 mm | - | - | - |
| 1777732220 | 18.33° C | 54% | 1015 hPa | 0 mm | - | - | - |
| 1777731617 | 19.44° C | 51% | 1015 hPa | 0 mm | - | - | - |
| 1777731033 | 19.44° C | 49% | 1014.9 hPa | 0 mm | - | - | - |
* Rain latest hour (hover to see other rain measurements)
** Current wind speed in m/s (hover to see current wind gust speed)